Location: Unspecified
(0.0000°N, 0.0000°E)
Time: 13:08:21
(UTC+00:00)

N. Korean satellite - Pass Details

Date: 14 September 2017
Orbit: 461 x 516 km, 97.2° (Epoch: 24 September)

Event Time Altitude Azimuth Distance (km) Brightness Sun altitude
Rises 19:11:34 0° 196° (SSW) 2,596 10.4 -19.0°
Reaches altitude 10° 19:14:10 10° 216° (SW) 1,719 9.7 -19.7°
Maximum altitude 19:16:41 18° 259° (W) 1,315 9.7 -20.3°
Drops below altitude 10° 19:19:14 10° 302° (WNW) 1,727 10.2 -20.9°
Sets 19:21:52 0° 322° (NW) 2,615 10.9 -21.6°
